| time (UTC) | temp C | wind direction | speed KPH | gust KPH | rain 1hr cm | rain 24hr cm | rain mn cm | humidity % | barometer mb |
| 20260504212301 | 17 | 276 | 1.6 | 4.8 | 0.00 | 0.05 | 0.05 | 48 | 1006.0 |
| 20260504211802 | 17 | 276 | 1.6 | 4.8 | 0.00 | 0.05 | 0.05 | 47 | 1006.0 |
| 20260504211511 | 17 | 276 | 1.6 | 9.7 | 0.00 | 0.05 | 0.05 | 48 | 1006.8 |
| 20260504211301 | 17 | 276 | 1.6 | 9.7 | 0.00 | 0.05 | 0.05 | 48 | 1006.0 |
| 20260504210802 | 17 | 276 | 1.6 | 9.7 | 0.00 | 0.05 | 0.05 | 49 | 1006.0 |
| 20260504210301 | 17 | 276 | 0.0 | 6.4 | 0.00 | 0.05 | 0.05 | 47 | 1006.1 |
| 20260504210104 | 16 | 276 | 0.0 | 3.2 | 0.00 | 0.05 | 0.05 | 50 | 1006.8 |
| 20260504205803 | 17 | 276 | 1.6 | 4.8 | 0.00 | 0.05 | 0.05 | 49 | 1006.1 |
| 20260504205303 | 17 | 276 | 1.6 | 8.0 | 0.00 | 0.05 | 0.05 | 47 | 1006.0 |
| 20260504204802 | 17 | 276 | 1.6 | 8.0 | 0.00 | 0.05 | 0.05 | 47 | 1006.1 |
| 20260504204650 | 16 | 276 | 1.6 | 11.3 | 0.00 | 0.05 | 0.05 | 47 | 1006.7 |
| 20260504204302 | 17 | 276 | 3.2 | 11.3 | 0.00 | 0.05 | 0.05 | 49 | 1006.0 |
| 20260504203302 | 16 | 276 | 4.8 | 14.5 | 0.00 | 0.05 | 0.05 | 49 | 1006.1 |
| 20260504203056 | 16 | 276 | 8.0 | 14.5 | 0.00 | 0.05 | 0.05 | 48 | 1006.9 |
| 20260504202802 | 16 | 276 | 3.2 | 9.7 | 0.00 | 0.05 | 0.05 | 49 | 1006.2 |
| 20260504202304 | 16 | 276 | 3.2 | 12.9 | 0.00 | 0.05 | 0.05 | 50 | 1006.1 |
| 20260504201801 | 16 | 276 | 3.2 | 12.9 | 0.00 | 0.05 | 0.05 | 50 | 1006.1 |
| 20260504201642 | 16 | 276 | 3.2 | 9.7 | 0.00 | 0.05 | 0.05 | 50 | 1006.8 |
| 20260504201300 | 16 | 276 | 1.6 | 11.3 | 0.00 | 0.05 | 0.05 | 52 | 1006.2 |
| 20260504200301 | 15 | 276 | 3.2 | 6.4 | 0.00 | 0.05 | 0.05 | 57 | 1006.4 |
| 20260504200032 | 15 | 276 | 0.0 | 4.8 | 0.00 | 0.05 | 0.05 | 59 | 1007.0 |
| 20260504195802 | 15 | 276 | 1.6 | 4.8 | 0.00 | 0.05 | 0.05 | 59 | 1006.3 |
| 20260504195304 | 15 | 276 | 0.0 | 1.6 | 0.00 | 0.05 | 0.05 | 58 | 1006.3 |
| 20260504194802 | 14 | 276 | 0.0 | 1.6 | 0.00 | 0.05 | 0.05 | 60 | 1006.4 |
| 20260504194627 | 14 | 276 | 0.0 | 1.6 | 0.00 | 0.05 | 0.05 | 64 | 1007.2 |
| 20260504194303 | 14 | 276 | 0.0 | 1.6 | 0.00 | 0.05 | 0.05 | 67 | 1006.4 |
| 20260504193801 | 14 | 276 | 0.0 | 1.6 | 0.00 | 0.05 | 0.05 | 65 | 1006.5 |
| 20260504193301 | 14 | 276 | 0.0 | 1.6 | 0.00 | 0.05 | 0.05 | 65 | 1006.6 |
| 20260504193015 | 13 | 276 | 0.0 | 1.6 | 0.00 | 0.05 | 0.05 | 64 | 1007.3 |
| 20260504192802 | 14 | 276 | 0.0 | 0.0 | 0.00 | 0.05 | 0.05 | 65 | 1006.6 |
| 20260504192304 | 14 | 276 | 0.0 | 0.0 | 0.00 | 0.05 | 0.05 | 65 | 1006.6 |
| 20260504191802 | 13 | 276 | 0.0 | 0.0 | 0.00 | 0.05 | 0.05 | 66 | 1006.6 |
| 20260504191604 | 13 | 276 | 0.0 | 0.0 | 0.00 | 0.05 | 0.05 | 67 | 1007.5 |
| 20260504191302 | 13 | 276 | 0.0 | 0.0 | 0.00 | 0.05 | 0.05 | 67 | 1006.7 |
| 20260504190802 | 13 | 276 | 0.0 | 0.0 | 0.00 | 0.05 | 0.05 | 65 | 1006.6 |
| 20260504190302 | 13 | 276 | 0.0 | 1.6 | 0.00 | 0.05 | 0.05 | 69 | 1006.8 |
| 20260504190201 | 13 | 276 | 0.0 | 1.6 | 0.00 | 0.05 | 0.05 | 70 | 1007.5 |
| 20260504185802 | 13 | 276 | 0.0 | 1.6 | 0.00 | 0.05 | 0.05 | 68 | 1006.7 |
| 20260504185301 | 13 | 276 | 0.0 | 0.0 | 0.00 | 0.05 | 0.05 | 69 | 1006.8 |
| 20260504184600 | 12 | 276 | 0.0 | 0.0 | 0.00 | 0.05 | 0.05 | 72 | 1007.7 |
| 20260504184302 | 12 | 276 | 0.0 | 0.0 | 0.00 | 0.05 | 0.05 | 72 | 1006.8 |
| 20260504183800 | 12 | 276 | 0.0 | 1.6 | 0.00 | 0.05 | 0.05 | 72 | 1006.8 |
| 20260504183301 | 12 | 276 | 0.0 | 1.6 | 0.00 | 0.05 | 0.05 | 72 | 1006.9 |
| 20260504183144 | 12 | 276 | 0.0 | 1.6 | 0.00 | 0.05 | 0.05 | 72 | 1007.8 |
| 20260504182802 | 12 | 276 | 0.0 | 3.2 | 0.00 | 0.05 | 0.05 | 74 | 1006.9 |
| 20260504182304 | 12 | 276 | 0.0 | 3.2 | 0.00 | 0.05 | 0.05 | 70 | 1006.9 |
| 20260504181801 | 12 | 276 | 0.0 | 3.2 | 0.00 | 0.05 | 0.05 | 73 | 1007.0 |
| 20260504181520 | 11 | 276 | 0.0 | 3.2 | 0.00 | 0.05 | 0.05 | 75 | 1007.9 |
| 20260504180801 | 12 | 276 | 1.6 | 4.8 | 0.00 | 0.05 | 0.05 | 77 | 1007.1 |
| 20260504180302 | 11 | 276 | 1.6 | 4.8 | 0.00 | 0.05 | 0.05 | 76 | 1007.2 |
| 20260504180131 | 11 | 276 | 1.6 | 4.8 | 0.00 | 0.05 | 0.05 | 78 | 1008.0 |
| 20260504175801 | 11 | 276 | 1.6 | 3.2 | 0.00 | 0.05 | 0.05 | 76 | 1007.2 |
| 20260504175303 | 11 | 276 | 1.6 | 4.8 | 0.00 | 0.05 | 0.05 | 79 | 1007.2 |
| 20260504174531 | 11 | 276 | 1.6 | 4.8 | 0.00 | 0.05 | 0.05 | 78 | 1008.0 |
| 20260504174302 | 11 | 276 | 0.0 | 1.6 | 0.03 | 0.05 | 0.05 | 78 | 1007.1 |
| 20260504173301 | 11 | 276 | 0.0 | 0.0 | 0.03 | 0.05 | 0.05 | 80 | 1007.2 |
| 20260504173131 | 10 | 276 | 0.0 | 0.0 | 0.03 | 0.05 | 0.05 | 80 | 1008.1 |
| 20260504172801 | 11 | 276 | 0.0 | 0.0 | 0.03 | 0.05 | 0.05 | 80 | 1007.3 |
| 20260504171801 | 10 | 276 | 0.0 | 0.0 | 0.03 | 0.05 | 0.05 | 83 | 1007.3 |
| 20260504171532 | 10 | 276 | 0.0 | 0.0 | 0.03 | 0.05 | 0.05 | 85 | 1008.1 |
| 20260504171302 | 10 | 276 | 0.0 | 0.0 | 0.03 | 0.05 | 0.05 | 85 | 1007.2 |
| 20260504170801 | 10 | 276 | 0.0 | 0.0 | 0.05 | 0.05 | 0.05 | 84 | 1007.4 |
| 20260504170301 | 10 | 276 | 0.0 | 0.0 | 0.05 | 0.05 | 0.05 | 86 | 1007.4 |
| 20260504170129 | 9 | 276 | 0.0 | 0.0 | 0.05 | 0.05 | 0.05 | 86 | 1008.3 |
| 20260504160301 | 12 | 276 | 1.6 | 4.8 | 0.00 | 0.00 | 0.00 | 65 | 1006.8 |
| 20260504150801 | 13 | 276 | 3.2 | 11.3 | 0.00 | 0.00 | 0.00 | 57 | 1006.2 |
| 20260504150301 | 13 | 276 | 3.2 | 11.3 | 0.00 | 0.00 | 0.00 | 55 | 1006.3 |
| 20260504141301 | 11 | 276 | 3.2 | 11.3 | 0.00 | 0.00 | 0.00 | 62 | 1006.9 |
| 20260504140800 | 11 | 276 | 3.2 | 9.7 | 0.00 | 0.00 | 0.00 | 62 | 1007.1 |
| 20260504140302 | 11 | 276 | 3.2 | 9.7 | 0.00 | 0.00 | 0.00 | 62 | 1007.1 |
| 20260504130803 | 9 | 276 | 3.2 | 11.3 | 0.00 | 0.00 | 0.00 | 64 | 1007.9 |
| 20260504120302 | 5 | 276 | 0.0 | 6.4 | 0.00 | 0.03 | 0.00 | 71 | 1008.5 |
| 20260504110301 | 2 | 276 | 0.0 | 1.6 | 0.00 | 0.08 | 0.00 | 80 | 1008.4 |
| 20260504100302 | 3 | 276 | 0.0 | 1.6 | 0.00 | 0.13 | 0.00 | 75 | 1008.4 |
| 20260504100153 | 2 | 276 | 0.0 | 1.6 | 0.00 | 0.15 | 0.00 | 75 | 1009.5 |
| 20260504090138 | -1 | 276 | 0.0 | 0.0 | 0.00 | 0.15 | 0.00 | 88 | 1009.4 |
| 20260504081801 | 0 | 276 | 0.0 | 0.0 | 0.00 | 0.15 | 0.00 | 86 | 1008.3 |
| 20260504081510 | -1 | 276 | 0.0 | 0.0 | 0.00 | 0.15 | 0.00 | 87 | 1009.2 |
| 20260504081300 | 0 | 276 | 0.0 | 0.0 | 0.00 | 0.15 | 0.00 | 87 | 1008.3 |
| 20260504080258 | -1 | 276 | 0.0 | 0.0 | 0.00 | 0.15 | 0.00 | 86 | 1008.2 |
| 20260504070254 | 0 | 276 | 0.0 | 0.0 | 0.00 | 0.15 | 0.00 | 85 | 1008.4 |
| 20260504060229 | 1 | 276 | 0.0 | 3.2 | 0.00 | 0.15 | 0.00 | 78 | 1007.8 |
| 20260504050708 | 3 | 276 | 1.6 | 3.2 | 0.00 | 0.15 | 0.00 | 68 | 1007.9 |
| 20260504050207 | 3 | 276 | 1.6 | 3.2 | 0.00 | 0.15 | 0.00 | 69 | 1008.0 |
| 20260504050200 | 3 | 276 | 0.0 | 3.2 | 0.00 | 0.15 | 0.15 | 69 | 1008.9 |
| 20260504045704 | 3 | 276 | 1.6 | 3.2 | 0.00 | 0.15 | 0.00 | 66 | 1008.0 |
| 20260504045204 | 3 | 276 | 1.6 | 3.2 | 0.00 | 0.15 | 0.00 | 67 | 1008.0 |
| 20260504044702 | 3 | 276 | 1.6 | 3.2 | 0.00 | 0.15 | 0.00 | 67 | 1008.0 |
| 20260504044606 | 3 | 276 | 1.6 | 3.2 | 0.00 | 0.15 | 0.15 | 68 | 1008.9 |
| 20260504044203 | 3 | 276 | 1.6 | 3.2 | 0.00 | 0.15 | 0.00 | 71 | 1008.0 |
| 20260504043702 | 2 | 276 | 0.0 | 1.6 | 0.00 | 0.15 | 0.00 | 73 | 1007.9 |
| 20260504043203 | 2 | 276 | 0.0 | 0.0 | 0.00 | 0.15 | 0.00 | 74 | 1007.9 |
| 20260504043201 | 2 | 276 | 0.0 | 0.0 | 0.00 | 0.18 | 0.15 | 74 | 1008.9 |
| 20260504042201 | 3 | 276 | 0.0 | 1.6 | 0.00 | 0.15 | 0.00 | 72 | 1007.9 |
| 20260504041702 | 3 | 276 | 0.0 | 1.6 | 0.00 | 0.15 | 0.00 | 70 | 1007.8 |
| 20260504041545 | 3 | 276 | 0.0 | 1.6 | 0.00 | 0.18 | 0.15 | 69 | 1008.8 |
| 20260504040700 | 4 | 276 | 1.6 | 1.6 | 0.00 | 0.15 | 0.00 | 65 | 1007.7 |
| 20260504040140 | 4 | 276 | 0.0 | 3.2 | 0.00 | 0.18 | 0.15 | 66 | 1008.8 |
| 20260504035702 | 4 | 276 | 1.6 | 3.2 | 0.00 | 0.18 | 0.15 | 64 | 1007.7 |
| 20260504035203 | 4 | 276 | 0.0 | 3.2 | 0.00 | 0.18 | 0.15 | 64 | 1007.7 |
| 20260504034544 | 4 | 276 | 0.0 | 0.0 | 0.00 | 0.18 | 0.15 | 63 | 1008.8 |
| 20260504034203 | 4 | 276 | 0.0 | 0.0 | 0.00 | 0.18 | 0.15 | 65 | 1007.8 |
| 20260504033702 | 3 | 276 | 0.0 | 0.0 | 0.00 | 0.18 | 0.15 | 68 | 1007.8 |
| 20260504033203 | 4 | 276 | 0.0 | 0.0 | 0.00 | 0.18 | 0.15 | 66 | 1007.9 |
| 20260504033130 | 3 | 276 | 0.0 | 0.0 | 0.00 | 0.18 | 0.15 | 66 | 1008.9 |
| 20260504032702 | 4 | 276 | 0.0 | 0.0 | 0.00 | 0.18 | 0.15 | 64 | 1007.9 |
| 20260504032203 | 4 | 276 | 0.0 | 0.0 | 0.00 | 0.18 | 0.15 | 67 | 1007.8 |
| 20260504031702 | 4 | 276 | 0.0 | 0.0 | 0.00 | 0.18 | 0.15 | 66 | 1007.8 |
| 20260504031522 | 3 | 276 | 0.0 | 0.0 | 0.00 | 0.18 | 0.15 | 66 | 1008.7 |
| 20260504030702 | 4 | 276 | 0.0 | 0.0 | 0.00 | 0.18 | 0.15 | 67 | 1007.7 |
| 20260504030201 | 4 | 276 | 0.0 | 0.0 | 0.00 | 0.18 | 0.15 | 66 | 1007.7 |
| 20260504030112 | 3 | 276 | 0.0 | 0.0 | 0.00 | 0.18 | 0.15 | 66 | 1008.8 |
| 20260504025702 | 4 | 276 | 0.0 | 0.0 | 0.00 | 0.18 | 0.15 | 66 | 1007.7 |
| 20260504024658 | 4 | 276 | 0.0 | 0.0 | 0.00 | 0.18 | 0.15 | 64 | 1007.8 |
| 20260504024505 | 4 | 276 | 0.0 | 0.0 | 0.00 | 0.18 | 0.15 | 64 | 1008.8 |
| 20260504024153 | 4 | 276 | 0.0 | 0.0 | 0.00 | 0.18 | 0.15 | 64 | 1007.8 |
| 20260504023143 | 4 | 276 | 0.0 | 0.0 | 0.00 | 0.18 | 0.15 | 66 | 1007.8 |
| 20260504023056 | 3 | 276 | 0.0 | 0.0 | 0.00 | 0.18 | 0.15 | 66 | 1008.8 |
| 20260504022640 | 4 | 276 | 0.0 | 0.0 | 0.00 | 0.18 | 0.15 | 66 | 1007.7 |
| 20260504021655 | 4 | 276 | 0.0 | 0.0 | 0.00 | 0.18 | 0.15 | 67 | 1008.9 |
| 20260504021637 | 4 | 276 | 0.0 | 0.0 | 0.00 | 0.18 | 0.15 | 67 | 1007.9 |
| 20260504021135 | 5 | 276 | 0.0 | 0.0 | 0.00 | 0.18 | 0.15 | 66 | 1007.8 |
| 20260504020632 | 5 | 276 | 1.6 | 3.2 | 0.00 | 0.18 | 0.15 | 66 | 1007.8 |
| 20260504020131 | 5 | 276 | 1.6 | 3.2 | 0.00 | 0.18 | 0.15 | 63 | 1007.7 |
| 20260504020037 | 5 | 276 | 0.0 | 3.2 | 0.00 | 0.18 | 0.15 | 61 | 1008.7 |
| 20260504015130 | 5 | 276 | 1.6 | 3.2 | 0.00 | 0.18 | 0.15 | 62 | 1007.9 |
| 20260504014633 | 5 | 276 | 0.0 | 4.8 | 0.00 | 0.18 | 0.15 | 64 | 1008.8 |
| 20260504014629 | 5 | 276 | 3.2 | 4.8 | 0.00 | 0.18 | 0.15 | 64 | 1007.8 |
| 20260504014129 | 5 | 276 | 3.2 | 4.8 | 0.00 | 0.18 | 0.15 | 61 | 1007.9 |
| 20260504013630 | 5 | 276 | 1.6 | 4.8 | 0.00 | 0.18 | 0.15 | 61 | 1007.9 |
| 20260504013128 | 5 | 276 | 0.0 | 1.6 | 0.00 | 0.18 | 0.15 | 62 | 1008.0 |
| 20260504013037 | 5 | 276 | 0.0 | 1.6 | 0.00 | 0.18 | 0.15 | 63 | 1008.8 |
| 20260504011627 | 5 | 276 | 0.0 | 4.8 | 0.00 | 0.18 | 0.15 | 62 | 1008.6 |
| 20260504011617 | 5 | 276 | 1.6 | 4.8 | 0.00 | 0.18 | 0.15 | 63 | 1007.7 |
| 20260504011111 | 5 | 276 | 1.6 | 4.8 | 0.00 | 0.18 | 0.15 | 61 | 1007.6 |
| 20260504010606 | 5 | 276 | 1.6 | 9.7 | 0.00 | 0.18 | 0.15 | 62 | 1007.6 |
| 20260504010017 | 5 | 276 | 0.0 | 9.7 | 0.00 | 0.18 | 0.15 | 59 | 1008.5 |
| 20260504005604 | 5 | 276 | 0.0 | 4.8 | 0.00 | 0.18 | 0.15 | 61 | 1007.5 |
| 20260504005105 | 5 | 276 | 0.0 | 1.6 | 0.00 | 0.18 | 0.15 | 61 | 1007.5 |
| 20260504004617 | 5 | 276 | 0.0 | 0.0 | 0.00 | 0.18 | 0.15 | 62 | 1008.4 |
| 20260504004603 | 5 | 276 | 0.0 | 0.0 | 0.00 | 0.18 | 0.15 | 62 | 1007.4 |
| 20260504004103 | 5 | 276 | 0.0 | 0.0 | 0.00 | 0.18 | 0.15 | 60 | 1007.4 |
| 20260504003604 | 5 | 276 | 0.0 | 1.6 | 0.00 | 0.18 | 0.15 | 60 | 1007.3 |
| 20260504003103 | 5 | 276 | 0.0 | 3.2 | 0.00 | 0.18 | 0.15 | 60 | 1007.3 |
| 20260504003014 | 5 | 276 | 0.0 | 3.2 | 0.00 | 0.18 | 0.15 | 59 | 1008.2 |
| 20260504002105 | 5 | 276 | 0.0 | 8.0 | 0.00 | 0.18 | 0.15 | 60 | 1007.3 |
| 20260504001616 | 5 | 276 | 0.0 | 8.0 | 0.00 | 0.18 | 0.15 | 59 | 1008.1 |
| 20260504001604 | 6 | 276 | 0.0 | 8.0 | 0.00 | 0.18 | 0.15 | 59 | 1007.1 |
| 20260504001105 | 6 | 276 | 0.0 | 4.8 | 0.00 | 0.18 | 0.15 | 59 | 1007.2 |
| 20260504000604 | 6 | 276 | 1.6 | 6.4 | 0.00 | 0.18 | 0.15 | 59 | 1007.1 |
| 20260504000104 | 6 | 276 | 1.6 | 6.4 | 0.00 | 0.18 | 0.15 | 57 | 1007.0 |
| 20260504000014 | 6 | 276 | 3.2 | 6.4 | 0.00 | 0.18 | 0.15 | 57 | 1007.9 |
| 20260503235605 | 6 | 276 | 1.6 | 6.4 | 0.00 | 0.18 | 0.15 | 57 | 1007.0 |
| 20260503234610 | 6 | 276 | 0.0 | 4.8 | 0.00 | 0.18 | 0.15 | 56 | 1007.9 |
| 20260503234604 | 6 | 276 | 1.6 | 4.8 | 0.00 | 0.18 | 0.15 | 56 | 1006.9 |
| 20260503234103 | 6 | 276 | 1.6 | 4.8 | 0.00 | 0.18 | 0.15 | 55 | 1006.8 |
| 20260503233104 | 6 | 276 | 1.6 | 12.9 | 0.00 | 0.18 | 0.15 | 54 | 1006.8 |
| 20260503233006 | 6 | 276 | 3.2 | 12.9 | 0.00 | 0.18 | 0.15 | 54 | 1007.7 |
| 20260503232604 | 6 | 276 | 1.6 | 8.0 | 0.00 | 0.18 | 0.15 | 54 | 1006.8 |
| 20260503231104 | 7 | 276 | 1.6 | 8.0 | 0.00 | 0.18 | 0.15 | 52 | 1006.8 |
| 20260503230604 | 7 | 276 | 1.6 | 8.0 | 0.00 | 0.18 | 0.15 | 52 | 1006.7 |
| 20260503230006 | 7 | 276 | 1.6 | 4.8 | 0.00 | 0.18 | 0.15 | 51 | 1007.6 |
| 20260503225605 | 7 | 276 | 1.6 | 6.4 | 0.00 | 0.18 | 0.15 | 50 | 1006.7 |
| 20260503224608 | 8 | 276 | 1.6 | 6.4 | 0.00 | 0.18 | 0.15 | 50 | 1007.6 |
| 20260503224603 | 8 | 276 | 1.6 | 6.4 | 0.00 | 0.18 | 0.15 | 50 | 1006.7 |
| 20260503223605 | 8 | 276 | 3.2 | 14.5 | 0.00 | 0.18 | 0.15 | 47 | 1006.5 |
| 20260503223102 | 8 | 276 | 3.2 | 14.5 | 0.00 | 0.18 | 0.15 | 48 | 1006.5 |
| 20260503223002 | 7 | 276 | 1.6 | 14.5 | 0.00 | 0.18 | 0.15 | 48 | 1007.3 |
| 20260503222608 | 8 | 276 | 1.6 | 8.0 | 0.00 | 0.18 | 0.15 | 47 | 1006.3 |
| 20260503222101 | 8 | 276 | 1.6 | 6.4 | 0.00 | 0.18 | 0.15 | 47 | 1006.3 |
| 20260503221607 | 8 | 276 | 1.6 | 4.8 | 0.00 | 0.18 | 0.15 | 47 | 1007.0 |
| 20260503221602 | 8 | 276 | 1.6 | 9.7 | 0.00 | 0.18 | 0.15 | 47 | 1006.1 |
| 20260503221101 | 9 | 276 | 3.2 | 9.7 | 0.00 | 0.18 | 0.15 | 45 | 1006.1 |
| 20260503220602 | 9 | 276 | 1.6 | 6.4 | 0.00 | 0.18 | 0.15 | 45 | 1006.0 |
| 20260503220002 | 9 | 276 | 0.0 | 6.4 | 0.00 | 0.18 | 0.15 | 45 | 1006.9 |
| 20260503215601 | 10 | 276 | 1.6 | 6.4 | 0.00 | 0.18 | 0.15 | 44 | 1006.1 |
| 20260503214605 | 8 | 276 | 1.6 | 8.0 | 0.00 | 0.18 | 0.15 | 44 | 1006.8 |
| 20260503214600 | 9 | 276 | 3.2 | 8.0 | 0.00 | 0.18 | 0.15 | 44 | 1005.9 |
| 20260503214101 | 8 | 276 | 3.2 | 8.0 | 0.00 | 0.18 | 0.15 | 45 | 1006.2 |
| 20260503213601 | 9 | 276 | 3.2 | 9.7 | 0.00 | 0.18 | 0.15 | 44 | 1006.1 |
| 20260503213101 | 9 | 276 | 3.2 | 9.7 | 0.00 | 0.18 | 0.15 | 44 | 1006.1 |
| 20260503213008 | 9 | 276 | 3.2 | 9.7 | 0.00 | 0.18 | 0.15 | 43 | 1006.9 |
| 20260503212601 | 10 | 276 | 3.2 | 9.7 | 0.00 | 0.18 | 0.15 | 42 | 1005.9 |